TimeMST,TemperatureF,Dew PointF,Humidity,Sea Level PressureIn,VisibilityMPH,Wind Direction,Wind SpeedMPH,Gust SpeedMPH,PrecipitationIn,Events,Conditions,WindDirDegrees,DateUTC
12:41 AM,57.2,50.0,77,29.90,10.0,NNE,10.4,-,N/A,,Clear,20,2014-02-25 07:41:00
1:42 AM,57.2,48.2,72,29.89,10.0,North,8.1,-,N/A,,Clear,10,2014-02-25 08:42:00
2:00 AM,68,63,78,29.89,,North,2.2,,,,,350,2014-02-25 09:00:00
2:43 AM,57.2,48.2,72,29.86,10.0,NNE,6.9,-,N/A,,Mostly Cloudy,20,2014-02-25 09:43:00
3:46 AM,55.4,48.2,77,29.86,10.0,ENE,6.9,-,N/A,,Mostly Cloudy,60,2014-02-25 10:46:00
4:45 AM,57.2,48.2,72,29.86,10.0,NE,8.1,-,N/A,,Mostly Cloudy,50,2014-02-25 11:45:00
5:47 AM,57.2,46.4,67,29.89,10.0,NW,9.2,-,N/A,,Mostly Cloudy,320,2014-02-25 12:47:00
6:40 AM,57.2,46.4,67,29.92,10.0,NNE,8.1,-,N/A,,Overcast,20,2014-02-25 13:40:00
7:49 AM,57.2,46.4,67,29.93,12.0,North,9.2,-,N/A,,Overcast,360,2014-02-25 14:49:00
8:00 AM,68,62,76,29.94,,Calm,Calm,,,,,,2014-02-25 15:00:00
8:46 AM,64.4,48.2,56,29.94,12.0,North,6.9,-,N/A,,Overcast,360,2014-02-25 15:46:00
9:43 AM,75.2,51.8,44,29.96,12.0,SW,3.5,-,N/A,,Overcast,220,2014-02-25 16:43:00
10:50 AM,75.2,53.6,47,29.96,14.0,East,6.9,-,N/A,,Overcast,100,2014-02-25 17:50:00
11:42 AM,80.6,53.6,39,29.94,15.0,SSE,6.9,-,N/A,,Mostly Cloudy,160,2014-02-25 18:42:00
12:49 PM,80.6,57.2,45,29.91,15.0,SW,6.9,-,N/A,,Mostly Cloudy,220,2014-02-25 19:49:00
1:40 PM,86.0,57.2,37,29.87,15.0,SSW,8.1,-,N/A,,Mostly Cloudy,200,2014-02-25 20:40:00
2:00 PM,83,64,43,29.89,,West,6.7,,,,,280,2014-02-25 21:00:00
2:42 PM,84.2,51.8,33,29.84,15.0,SW,12.7,-,N/A,,Mostly Cloudy,230,2014-02-25 21:42:00
3:49 PM,82.4,53.6,37,29.82,15.0,WSW,11.5,-,N/A,,Mostly Cloudy,240,2014-02-25 22:49:00
4:43 PM,78.8,55.4,44,29.85,12.0,WSW,13.8,-,N/A,,Mostly Cloudy,250,2014-02-25 23:43:00
5:00 PM,79,66,56,29.86,,West,8.9,,,,,270,2014-02-26 00:00:00
5:52 PM,75.2,57.2,53,29.85,12.0,West,10.4,-,N/A,,Scattered Clouds,270,2014-02-26 00:52:00
6:42 PM,71.6,55.4,57,29.86,12.0,West,8.1,-,N/A,,Scattered Clouds,260,2014-02-26 01:42:00
7:43 PM,69.8,55.4,60,29.88,12.0,WNW,9.2,-,N/A,,Partly Cloudy,290,2014-02-26 02:43:00
8:00 PM,74,67,73,29.91,,WNW,6.7,,,,,290,2014-02-26 03:00:00
8:45 PM,66.2,55.4,68,29.91,10.0,WSW,4.6,-,N/A,,Partly Cloudy,240,2014-02-26 03:45:00
9:41 PM,62.6,51.8,68,29.92,10.0,SW,8.1,-,N/A,,Partly Cloudy,220,2014-02-26 04:41:00
10:48 PM,60.8,50.0,68,29.93,10.0,WNW,6.9,-,N/A,,Clear,300,2014-02-26 05:48:00
11:00 PM,69,66,87,29.94,,NW,2.2,,,,,320,2014-02-26 06:00:00
11:43 PM,59.0,50.0,72,29.92,10.0,North,4.6,-,N/A,,Clear,10,2014-02-26 06:43:00